Branson, MO

6:05 AM CST on November 24, 2017 (GMT -0600)
Branson

Weather History for KBBG - November, 2012

Change the Weather History Date:

Tuesday, November 6, 2012

  Actual Average (KHRO) Record (KHRO)
Temperature  
Mean Temperature 49 °F -  
Max Temperature 57 °F 59 °F 81 °F (1914)
Min Temperature 41 °F 37 °F 17 °F (1959)
Degree Days  
Heating Degree Days 16    
Moisture  
Dew Point 38 °F    
Average Humidity 74    
Maximum Humidity 93    
Minimum Humidity 48    
Precipitation  
Precipitation 0.00 in - - ()
Sea Level Pressure  
Sea Level Pressure 30.05 in    
Wind  
Wind Speed 7 mph (WNW)    
Max Wind Speed 12 mph    
Max Gust Speed 18 mph    
Visibility 9 miles    
Events      
Averages and records for this station are not official NWS values.
T = Trace of Precipitation, MM = Missing Value Source: NWS Daily Summary

Daily Weather History Graph

Daily Weather History Graph

Search for Another Location

Airport or City:

Trip Planner

Search our weather history database for the weather conditions in past years. The results will help you decide how hot, cold, wet, or windy it might be!

Date:

Astronomy

Nov. 06, 2012 Rise Set
Actual Time 6:41 AM CST 5:10 PM CST
Civil Twilight 6:14 AM CST 5:37 PM CST
Nautical Twilight 5:43 AM CST 6:08 PM CST
Astronomical Twilight 5:13 AM CST 6:38 PM CST
Moon 11:48 PM CST (11/6) 12:35 PM CST (11/6)
Length of Visible Light 11h 23m
Length of Day
10h 29m
Waning Gibbous, 53% of the Moon is Illuminated
Nov 6
Waning Gibbous
Nov 6
Last Quarter
Nov 13
New
Nov 20
First Quarter
Nov 28
Full

Hourly Weather History & Observations

Time (CST) Temp. Windchill Dew Point Humidity Pressure Visibility Wind Dir Wind Speed Gust Speed Precip Events Conditions
12:15 AM 42.8 °F 38.0 °F 39.2 °F 87% 30.07 in 10.0 mi NW 8.1 mph - N/A   Overcast
12:35 AM 42.8 °F 38.6 °F 39.2 °F 87% 30.06 in 10.0 mi NW 6.9 mph - N/A   Overcast
12:55 AM 42.8 °F 38.6 °F 39.2 °F 87% 30.06 in 10.0 mi NW 6.9 mph - N/A   Overcast
1:15 AM 42.8 °F 40.1 °F 39.2 °F 87% 30.06 in 10.0 mi NW 4.6 mph - N/A   Overcast
1:35 AM 42.8 °F 39.3 °F 39.2 °F 87% 30.06 in 10.0 mi NW 5.8 mph - N/A   Overcast
1:55 AM 42.8 °F 39.3 °F 39.2 °F 87% 30.06 in 8.0 mi NW 5.8 mph - N/A   Overcast
2:15 AM 42.8 °F 38.6 °F 39.2 °F 87% 30.06 in 8.0 mi NW 6.9 mph - N/A   Overcast
2:35 AM 42.8 °F 38.6 °F 39.2 °F 87% 30.06 in 6.0 mi NW 6.9 mph - N/A   Overcast
2:55 AM 41.0 °F 35.8 °F 39.2 °F 93% 30.06 in 5.0 mi WNW 8.1 mph - N/A   Overcast
3:15 AM 41.0 °F 36.4 °F 39.2 °F 93% 30.06 in 5.0 mi NW 6.9 mph - N/A   Overcast
3:35 AM 41.0 °F 38.0 °F 39.2 °F 93% 30.06 in 5.0 mi NW 4.6 mph - N/A   Overcast
3:55 AM 42.8 °F 39.3 °F 41.0 °F 93% 30.06 in 5.0 mi NW 5.8 mph - N/A   Overcast
4:15 AM 41.0 °F 37.1 °F 39.2 °F 93% 30.06 in 5.0 mi NW 5.8 mph - N/A   Overcast
4:35 AM 41.0 °F 37.1 °F 39.2 °F 93% 30.07 in 6.0 mi NW 5.8 mph - N/A   Overcast
4:55 AM 42.8 °F 39.3 °F 39.2 °F 87% 30.06 in 7.0 mi NNW 5.8 mph - N/A   Overcast
5:15 AM 42.8 °F 39.3 °F 41.0 °F 93% 30.06 in 6.0 mi NW 5.8 mph - N/A   Overcast
6:48 AM 41.0 °F 38.0 °F 39.2 °F 93% 30.07 in 7.0 mi NW 4.6 mph - N/A   Overcast
7:14 AM 41.0 °F 38.0 °F 39.2 °F 93% 30.08 in 8.0 mi NW 4.6 mph - N/A   Overcast
7:50 AM 42.8 °F 38.6 °F 39.2 °F 87% 30.10 in 10.0 mi NNW 6.9 mph - N/A   Overcast
8:46 AM 42.8 °F 39.3 °F 37.4 °F 81% 30.09 in 10.0 mi West 5.8 mph - N/A   Overcast
9:50 AM 44.6 °F 40.7 °F 39.2 °F 81% 30.08 in 10.0 mi West 6.9 mph - N/A   Overcast
10:52 AM 46.4 °F 42.4 °F 37.4 °F 71% 30.09 in 10.0 mi West 8.1 mph - N/A   Mostly Cloudy
11:46 AM 50.0 °F - 39.2 °F 66% 30.05 in 10.0 mi NNW 5.8 mph - N/A   Scattered Clouds
12:46 PM 53.6 °F - 37.4 °F 54% 30.03 in 10.0 mi WNW 9.2 mph - N/A   Mostly Cloudy
1:45 PM 55.4 °F - 37.4 °F 51% 30.00 in 10.0 mi West 5.8 mph - N/A   Mostly Cloudy
2:53 PM 57.2 °F - 37.4 °F 48% 29.98 in 10.0 mi NW 11.5 mph 18.4 mph N/A   Mostly Cloudy
3:58 PM 55.4 °F - 37.4 °F 51% 30.00 in 10.0 mi WNW 9.2 mph 16.1 mph N/A   Mostly Cloudy
4:45 PM 55.4 °F - 37.4 °F 51% 30.01 in 10.0 mi WNW 9.2 mph - N/A   Mostly Cloudy
5:55 PM 51.8 °F - 37.4 °F 58% 30.02 in 10.0 mi West 8.1 mph - N/A   Clear
6:53 PM 50.0 °F - 39.2 °F 66% 30.04 in 10.0 mi West 6.9 mph - N/A   Clear
7:58 PM 50.0 °F - 39.2 °F 66% 30.04 in 10.0 mi WNW 11.5 mph - N/A   Clear
8:15 PM 48.2 °F - 39.2 °F 71% 30.05 in 10.0 mi WNW 4.6 mph - N/A   Clear
8:35 PM 48.2 °F - 39.2 °F 71% 30.05 in 10.0 mi WNW 5.8 mph - N/A   Clear
8:50 PM 48.2 °F - 37.4 °F 66% 30.06 in 10.0 mi WNW 8.1 mph - N/A   Clear
8:55 PM 48.2 °F - 37.4 °F 66% 30.06 in 10.0 mi NW 8.1 mph - N/A   Clear
9:15 PM 48.2 °F - 35.6 °F 62% 30.06 in 10.0 mi NW 5.8 mph - N/A   Clear
9:35 PM 48.2 °F - 35.6 °F 62% 30.06 in 10.0 mi WNW 4.6 mph - N/A   Clear
9:55 PM 46.4 °F 44.3 °F 33.8 °F 62% 30.06 in 10.0 mi NW 4.6 mph - N/A   Clear
10:15 PM 46.4 °F 44.3 °F 32.0 °F 57% 30.06 in 10.0 mi NW 4.6 mph - N/A   Clear
10:35 PM 46.4 °F 45.2 °F 32.0 °F 57% 30.06 in 10.0 mi West 3.5 mph - N/A   Clear
10:55 PM 46.4 °F 45.2 °F 32.0 °F 57% 30.05 in 10.0 mi West 3.5 mph - N/A   Clear
11:15 PM 46.4 °F - 32.0 °F 57% 30.05 in 10.0 mi Calm Calm - N/A   Clear
11:35 PM 46.4 °F 45.2 °F 32.0 °F 57% 30.05 in 10.0 mi West 3.5 mph - N/A   Clear
11:55 PM 44.6 °F 43.1 °F 32.0 °F 61% 30.05 in 10.0 mi West 3.5 mph - N/A   Clear